Other Public Products
Issued by NWS Grand Forks, ND

Home | Current Version | Previous Version | Graphics & Text | Print | Product List | Glossary On
Versions: 1 2 3 4 5 6 7 8 9 10 11 12 13 14 15 16 17 18 19 20 21 22 23 24 25 26 27 28 29 30 31 32 33 34 35 36 37 38 39 40 41 42 43 44 45 46 47 48 49 50
000
FPUS83 KFGF 250531
OPUFGF
PRAIRIE TO PINES WEATHER ROUNDUP
NATIONAL WEATHER SERVICE EASTERN NORTH DAKOTA/GRAND FORKS ND
1200 AM CDT FRI JUL 25 2014

 **SATELLITE DATA USED TO AUGMENT SKY COVER AT AUTOMATED STATIONS**
 *****  WEATHER ACROSS EASTERN NORTH DAKOTA  *****

CITY           SKY/WX    TMP DP  RH WIND       PRES   REMARKS
GRAND FORKS    CLOUDY    70  62  76 SE9       29.79F
GRAND FORKS AF CLOUDY    69  65  88 E6        29.80F
GRAND CITY NWS   N/A     70 N/A N/A SE9         N/A
BUXTON           N/A     69  67  93 E9          N/A
DEVILS LAKE    CLOUDY    68  61  77 SE9       29.78R
FARGO          PTCLDY    70  61  73 SE10      29.78F
WAHPETON ARPT  MOCLDY    64  59  82 E9        29.79R
$$

 *****  WEATHER ACROSS CENTRAL AND WESTERN NORTH DAKOTA  *****

CITY           SKY/WX    TMP DP  RH WIND       PRES   REMARKS
JAMESTOWN      CLOUDY    68  63  84 SE9       29.74R
BISMARCK       LGT RAIN  71  65  81 SE5       29.73R
MINOT          CLOUDY    69  66  90 E7        29.74R
MINOT AFB      CLOUDY    68  68 100 NE13      29.71R
GARRISON         N/A     70  67  90 E9        29.68F
WILLISTON      MOCLDY    64  60  87 NW10      29.80R
DICKINSON      CLOUDY    68  64  87 NW15      29.76R
HETTINGER      PTCLDY    70  66  87 NW9       29.75R
$$

 *****  OTHER OBSERVATIONS NORTHEAST NORTH DAKOTA  *****

CITY           SKY/WX    TMP DP  RH WIND       PRES   REMARKS
WALHALLA         N/A     68  66  94 S6          N/A
LANGDON        CLOUDY    66  61  82 S7        29.82R
CAVALIER       MOCLDY    68  63  83 SE6       29.78F
GRAFTON        CLOUDY    68  63  83 SE9       29.79F
CANDO          CLOUDY    66  64  94 E3        29.83R
FORT TOTTEN      N/A     67  63  86 SE6       29.95
ROLLA          CLOUDY    66  66 100 SE7       29.84F
RUGBY          CLOUDY    66  66 100 E12       29.79S THUNDER
 ***** THE ABOVE OBSERVATIONS ARE NON NWS ARE NOT QUALITY
        CONTROLLED AND MAY MIS-REPORT RAIN FOR SNOW...
$$

 *****  OTHER OBSERVATIONS SOUTHEAST NORTH DAKOTA *****

CITY           SKY/WX    TMP DP  RH WIND       PRES   REMARKS
COOPERSTOWN    NOT AVBL
VALLEY CITY    MOCLDY    66  66 100 SE9       29.77S
OAKES          NOT AVBL
GWINNER        CLEAR     68  66  94 SE10      29.73F
SHEYENNE NWR     N/A     68  62  81 E7        29.95
BUFFALO        NOT AVBL
WYNDMERE       NOT AVBL
 ***** THE ABOVE OBSERVATIONS ARE NON NWS ARE NOT QUALITY
       CONTROLLED AND MAY MIS-REPORT RAIN FOR SNOW...
$$

  *****  WEATHER ACROSS NORTHERN MINNESOTA  *****

CITY           SKY/WX    TMP DP  RH WIND       PRES   REMARKS
FLAG ISLAND    PTCLDY    70  63  78 S8        29.85S
WARROAD        MOCLDY    64  61  88 SE6       29.87R
ROSEAU         CLOUDY    64  59  82 E6        29.84F
HALLOCK        MOCLDY    68  63  83 SE5       29.80F
THF RVR FALLS  CLOUDY    66  59  77 SE8       29.83F
HALSTAD          N/A     69  63  80 SE8         N/A
FOSSTON        CLOUDY    64  57  77 SE5       29.85F
BAUDETTE       PTCLDY    65  59  81 CALM      29.88R
WASKISH        CLOUDY    63  61  94 E3        29.88S THUNDER
CROOKSTON      CLOUDY    68  61  77 SE8       29.81F
$$
  *****  WEATHER ACROSS CENTRAL AND WEST MINNESOTA  *****

CITY           SKY/WX    TMP DP  RH WIND       PRES   REMARKS
BEMIDJI        PTCLDY    64  58  82 SE7       29.87S
PARK RAPIDS    MOCLDY    67  59  75 SE8       29.86F
WADENA         PTCLDY    64  61  88 SE8       29.85F
DETROIT LAKES  PTCLDY    68  61  77 SE10      29.85R
MOORHEAD       PTCLDY    70  64  83 SE6       29.80R
FERGUS FALLS   PTCLDY    68  57  68 SE10      29.81R
ELBOW LAKE     FAIR      66  60  82 SE13G18   29.81R
MORRIS MN      PTCLDY    64  61  88 SE15      29.79F
STAPLES        MOCLDY    64  61  88 SE5       29.86F
WHEATON        MOCLDY    64  57  77 SE17G25   29.77F
$$
  *****  WEATHER ELSEWHERE ACROSS MINNESOTA  *****

CITY           SKY/WX    TMP DP  RH WIND       PRES   REMARKS
DULUTH         MOCLDY    65  56  72 SE6       29.91S
INTRNTL FALLS  CLEAR     57  56  96 CALM      29.88R
ELY            PTCLDY    55  54  94 CALM      29.93R
CLOQUET        PTCLDY    63  55  77 CALM      29.91S
BRAINERD       MOCLDY    64  60  87 S6        29.90R
HIBBING        CLEAR     58  55  90 CALM      29.90R
ALEXANDRIA     PTCLDY    66  60  81 SE12      29.84F
SAINT CLOUD    PTCLDY    68  60  75 SE8       29.88F
MINNEAPOLIS    MOCLDY    71  58  63 S9        29.93F
$$

  *****  WEATHER ACROSS SOUTH DAKOTA  *****

CITY           SKY/WX    TMP DP  RH WIND       PRES   REMARKS
SIOUX FALLS    MOCLDY    70  62  76 SE8       29.80F
BROOKINGS      NOT AVBL
WATERTOWN      MOCLDY    66  61  84 SE16      29.78F
HURON          PTCLDY    71  62  73 SE15G22   29.69F
SISSETON         N/A     66  62  87 S13G18    29.76F
ABERDEEN       TSTM      69  64  84 W23G36    29.80R
MITCHELL       MOCLDY    73  64  73 SE13      29.72S
PIERRE         CLOUDY    78  67  68 N26G35    29.68R
MOBRIDGE       CLOUDY    78  61  55 SE5       29.57F
RAPID CITY     CLEAR     74  61  63 NW20      29.74R
$$

  *****  SOME WEATHER IN NEARBY STATES *****

CITY           SKY/WX    TMP DP  RH WIND       PRES   REMARKS
GLASGOW MT     CLEAR     63  39  41 N3        29.86R
GREAT FALLS MT CLEAR     58  33  39 W12       29.98R
CHEYENNE WY    PTCLDY    73  51  46 SW14G29   30.13R
SCOTTSBLUFF NE CLEAR     77  55  46 SE8       29.89S
OMAHA NE       PTCLDY    74  59  59 S23G29    29.86F
DES MOINES IA  PTCLDY    70  59  68 S6        29.95R
DAVENPORT IA   CLEAR     63  55  75 S8        30.02R
CHICAGO IL     PTCLDY    60  45  57 S6        30.05S
EAU CLAIRE WI  PTCLDY    67  59  75 S6        29.97S
LA CROSSE WI   CLEAR     69  61  75 S5        30.00R
$$

  *****  SOME NATIONAL WEATHER *****

CITY           SKY/WX    TMP DP  RH WIND       PRES   REMARKS
LA GUARDIA NY  MOCLDY    72  57  60 N6        29.91R
RALEIGH NC     MOCLDY    69  65  86 VRB3      29.99R
ATLANTA GA     MOCLDY    73  70  90 NW8       30.00R
NEW ORLEANS LA PTCLDY    78  73  84 W5        29.99S
OKLAHOMA CITY  PTCLDY    78  68  71 S8        30.01R
ALBUQUERQUE NM PTCLDY    79  43  27 SE7       30.19R
SALT LAKE CITY MOCLDY    74  59  59 W8        29.95S
LOS ANGELES CA CLEAR     72  59  63 SW5       29.80R
BOISE ID       CLEAR     65  33  30 NW6       30.06S
SEATTLE WA     MOCLDY    60  51  72 NE8       30.22S
$$

*** WEATHER ACROSS MANITOBA...SASKATCHEWAN AND ONTARIO ***
                ***ONTARIO***

CITY           SKY/WX    TMP DP  RH WIND       PRES   REMARKS
GERALDTON      CLEAR     59  52  77 SW8       29.87S
THUNDER BAY    PTCLDY    54  54 100 CALM      29.92S
SIOUX LOOKOUT  PTCLDY    54  52  94 E2        29.88F
TORONTO        MOCLDY    61  48  63 NW7       30.05S
BIG TROUT LK   CLEAR     61  50  67 N6        29.78S
PICKLE LAKE    NOT AVBL
DRYDEN         CLEAR     63  57  82 E3        29.89R
KENORA         MOCLDY    64  55  72 SE2       29.89R
$$
                *** MANITOBA***

CITY           SKY/WX    TMP DP  RH WIND       PRES   REMARKS
BRANDON        LGT RAIN  66  63  88 E8        29.79F
DAUPHIN        MOCLDY    66  63  88 SE5       29.78F
ISLAND LAKE    PTCLDY    61  57  88 CALM      29.81S
PILOT MOUND      N/A     66  61  82 S7          N/A
THE PAS        PTCLDY    66  57  72 SE10      29.73R
THOMPSON       PTCLDY    55  54  94 CALM      29.80R
WINNIPEG       CLEAR     68  61  77 SE10      29.81F
LYNN LAKE      CLEAR     64  54  68 SE3       29.78R
CHURCHILL      PTCLDY    52  48  87 N3        29.89R
GILLAM         MOCLDY    59  50  72 E5        29.85R
$$
                ***SASKATCHEWAN***

CITY           SKY/WX    TMP DP  RH WIND       PRES   REMARKS
ESTEVAN        CLOUDY   N/A N/A N/A W9          N/A
KINDERSLEY     PTCLDY    55  45  67 SW18G26   29.62S
LLOYDMINSTER   MOCLDY    54  50  87 NE3       29.56F
PRINCE ALBERT  LGT RAIN  59  59 100 CALM      29.56F
REGINA         MOCLDY    59  57  94 SW10      29.77S


USA.gov is the U.S. government's official web portal to all federal, state and local government web resources and services.